Weather in Achuyevo

Russia / Krasnodar Krai     45°42′36″N   37°46′33″E
temp.,
°C
wind,
m/s
gust,
m/s
humid.,
%
clouds,
%
prec.,
mm/h
press.,
hPa
HPBL,
m
12 april, mon
mon1200:00+9ene3489100 0.1 101956
03:00+9ene2290100 0.1 101920
06:00+9s3393100 0.1 102046
09:00+9sw4694100 0.1 1021152
12:00+9wsw3389100 0.2 102185
15:00+10w1184100 0.3 102237
18:00+10n2283100 0.0 102223
21:00+9ne118835 0.0 102315
13 april, tue
tue1300:00+9ssw448793 0.0 102281
03:00+8s3490100 0.0 102270
06:00+8sse3491100 0.0 102397
09:00+9sse4486100 0.0 1023104
12:00+9wsw348728 0.0 1023126
15:00+10w2286100 0.1 102269
18:00+9se1188100 0.2 102220
21:00+10ene1186100 0.2 102211
14 april, wed
wed1400:00+10nne2285100 0.0 102014
03:00+9ne3387100 0.0 101915
06:00+9ene2288100 0.0 101925
09:00+9e1187100 0.0 101929
12:00+10nw22829 0.0 1018110
15:00+10nw33825 0.0 1018159
18:00+11w34845 0.0 1017107
21:00+9w238467 0.0 101722
15 april, thu
thu1500:00+9ene118490 0.0 101611
03:00+9ese33885 0.0 101638
06:00+9ese349256 0.0 101666
09:00+11se448033 0.0 101564
12:00+13s3369100 0.0 101475
15:00+10s4590100 1.4 101592
18:00+10wsw229090 0.6 101441
21:00+10sw358942 0.6 101555
16 april, fri
fri1600:00+9sw5894100 0.0 1015155
03:00+9ssw7109179 0.0 1015354
06:00+8ssw7986100 0.1 1016905
09:00+9s91485100 0.1 1016705
12:00+10ssw10148888 0.3 1016501
15:00+10sw8128496 0.6 1016327
18:00+10sw578681 0.2 1016167
21:00+9sw81190100 0.6 1017353